K7TSD Weather Reports


time (UTC)temp
C
wind
direction
speed
KPH
gust
KPH
rain 1hr
cm
rain 24hr
cm
rain mn
cm
humidity
%
barometer
mb
20260504080417 10 238 0.0 0.0 0.00 0.00 0.00 55 1007.1
20260504070344 12 299 3.2 3.2 0.00 0.00 0.00 47 1007.1
20260504050732 10 241 0.0 0.0 0.00 0.00 0.00 51 1006.8
20260504050229 10 245 0.0 0.0 0.00 0.00 0.00 52 1006.8
20260504045726 10 259 0.0 0.0 0.00 0.00 0.00 52 1007.1
20260504045221 10 220 0.0 0.0 0.00 0.00 0.00 51 1007.1
20260504044719 10 231 0.0 0.0 0.00 0.00 0.00 53 1006.8
20260504044216 10 158 0.0 0.0 0.00 0.00 0.00 53 1006.8
20260504043713 10 229 0.0 0.0 0.00 0.00 0.00 53 1006.8
20260504043210 10 261 0.0 0.0 0.00 0.00 0.00 54 1006.8
20260504042708 10 262 0.0 0.0 0.00 0.00 0.00 54 1007.3
20260504042204 10 296 0.0 0.0 0.00 0.00 0.00 55 1007.3
20260504041700 10 239 0.0 0.0 0.00 0.00 0.00 55 1007.1
20260504041155 10 272 0.0 0.0 0.00 0.00 0.00 56 1007.3
20260504040653 10 197 0.0 0.0 0.00 0.00 0.00 57 1007.1
20260504040150 10 248 0.0 0.0 0.00 0.00 0.00 55 1007.3
20260504035646 10 271 0.0 0.0 0.00 0.00 0.00 55 1007.3
20260504035143 10 275 0.0 0.0 0.00 0.00 0.00 56 1007.3
20260504034641 10 253 0.0 0.0 0.00 0.00 0.00 56 1007.3
20260504034138 10 253 0.0 0.0 0.00 0.00 0.00 57 1007.3
20260504033635 10 278 0.0 0.0 0.00 0.00 0.00 57 1007.3
20260504033133 10 267 0.0 0.0 0.00 0.00 0.00 60 1007.2
20260504032629 10 278 0.0 0.0 0.00 0.00 0.00 60 1007.1
20260504032126 10 244 0.0 0.0 0.00 0.00 0.00 59 1007.3
20260504031624 10 232 0.0 0.0 0.00 0.00 0.00 59 1007.0
20260504031120 10 238 0.0 0.0 0.00 0.00 0.00 59 1007.4
20260504030617 10 265 0.0 0.0 0.00 0.00 0.00 60 1007.5
20260504030113 10 266 0.0 0.0 0.00 0.00 0.00 60 1007.3
20260504025610 10 288 0.0 0.0 0.00 0.00 0.00 61 1007.7
20260504025107 10 245 0.0 0.0 0.00 0.00 0.00 61 1007.8
20260504024604 10 250 0.0 0.0 0.00 0.00 0.00 62 1007.3
20260504024101 10 282 0.0 0.0 0.00 0.00 0.00 61 1007.5
20260504023557 10 230 0.0 0.0 0.00 0.00 0.00 61 1007.5
20260504023053 10 236 0.0 0.0 0.00 0.00 0.00 61 1007.4
20260504022550 10 248 0.0 0.0 0.00 0.00 0.00 61 1007.2
20260504022046 10 166 0.0 0.0 0.00 0.00 0.00 61 1007.2
20260504021543 11 259 0.0 0.0 0.00 0.00 0.00 60 1007.4
20260504021040 11 298 0.0 0.0 0.00 0.00 0.00 59 1007.7
20260504020537 11 268 0.0 0.0 0.00 0.00 0.00 58 1007.4
20260504020034 12 254 0.0 0.0 0.00 0.00 0.00 57 1007.2
20260504015530 12 253 0.0 0.0 0.00 0.00 0.00 56 1007.5
20260504015026 12 200 0.0 0.0 0.00 0.00 0.00 56 1007.7
20260504014522 15 187 0.0 0.0 0.00 0.00 0.00 51 1007.5
20260504014020 15 37 0.0 0.0 0.00 0.00 0.00 46 1007.5
20260504013518 15 341 0.0 0.0 0.00 0.00 0.00 44 1007.4
20260504013014 16 349 0.0 0.0 0.00 0.00 0.00 45 1007.5
20260504012512 16 335 0.0 0.0 0.00 0.00 0.00 44 1007.5
20260504012010 16 348 0.0 0.0 0.00 0.00 0.00 42 1007.7
20260504011506 16 358 0.0 0.0 0.00 0.00 0.00 42 1007.8
20260504011001 16 344 0.0 0.0 0.00 0.00 0.00 42 1007.7
20260504010458 16 336 0.0 3.2 0.00 0.00 0.00 41 1007.5
20260504005953 16 1 1.6 3.2 0.00 0.00 0.00 41 1007.9
20260504005451 17 355 0.0 3.2 0.00 0.00 0.00 41 1007.8
20260504004948 17 16 6.4 9.7 0.00 0.00 0.00 41 1007.9
20260504004446 17 336 0.0 0.0 0.00 0.00 0.00 42 1008.2
20260504003943 17 302 0.0 0.0 0.00 0.00 0.00 41 1008.0
20260504003439 17 348 1.6 3.2 0.00 0.00 0.00 40 1007.8
20260504002935 17 334 1.6 3.2 0.00 0.00 0.00 41 1008.1
20260504002433 17 1 6.4 9.7 0.00 0.00 0.00 40 1008.1
20260504001930 17 19 1.6 3.2 0.00 0.00 0.00 41 1008.1
20260504001427 17 348 4.8 9.7 0.00 0.00 0.00 42 1007.9
20260504000924 17 355 4.8 4.8 0.00 0.00 0.00 42 1008.0
20260504000423 17 347 0.0 0.0 0.00 0.00 0.00 43 1008.1
20260503235918 17 358 3.2 8.0 0.00 0.00 0.00 44 1008.4
20260503235416 17 307 9.7 12.9 0.00 0.00 0.00 42 1008.5
20260503234913 17 352 14.5 20.9 0.00 0.00 0.00 44 1008.4
20260503234411 17 356 8.0 11.3 0.00 0.00 0.00 45 1008.6
20260503233909 17 252 4.8 9.7 0.00 0.00 0.00 47 1008.4
20260503233405 17 345 14.5 16.1 0.00 0.00 0.00 47 1008.4
20260503232901 17 352 6.4 9.7 0.00 0.00 0.00 48 1008.6
20260503232358 17 330 17.7 20.9 0.00 0.00 0.00 47 1008.6
20260503231856 17 318 0.0 0.0 0.00 0.00 0.00 49 1008.5
20260503231353 17 23 16.1 17.7 0.00 0.00 0.00 48 1008.6
20260503230849 17 1 6.4 9.7 0.00 0.00 0.00 50 1008.6
20260503230346 17 9 12.9 17.7 0.00 0.00 0.00 50 1008.7
20260503225844 17 336 9.7 11.3 0.00 0.00 0.00 50 1008.7
20260503225339 17 11 1.6 3.2 0.00 0.00 0.00 50 1008.8
20260503224836 17 6 1.6 3.2 0.00 0.00 0.00 51 1009.1
20260503224333 17 4 8.0 12.9 0.00 0.00 0.00 50 1008.9
20260503223831 17 9 0.0 1.6 0.00 0.00 0.00 50 1009.1
20260503223328 17 57 0.0 0.0 0.00 0.00 0.00 52 1008.9
20260503222824 17 335 6.4 12.9 0.00 0.00 0.00 52 1008.9
20260503222323 17 27 4.8 9.7 0.00 0.00 0.00 49 1008.9
20260503221820 17 9 8.0 12.9 0.00 0.00 0.00 50 1009.1
20260503221319 17 331 9.7 12.9 0.00 0.00 0.00 49 1009.1
20260503220815 17 50 12.9 22.5 0.00 0.00 0.00 48 1009.1
20260503220312 17 47 1.6 4.8 0.00 0.00 0.00 50 1009.4
20260503215808 17 17 4.8 8.0 0.00 0.00 0.00 51 1009.2
20260503215305 17 3 4.8 8.0 0.00 0.00 0.00 50 1009.3
20260503214803 17 356 8.0 11.3 0.00 0.00 0.00 49 1009.5
20260503214300 17 73 0.0 0.0 0.00 0.00 0.00 48 1009.6
20260503213758 17 336 4.8 9.7 0.00 0.00 0.00 51 1010.0
20260503213255 17 6 8.0 9.7 0.00 0.00 0.00 50 1009.9
20260503212752 17 261 8.0 12.9 0.00 0.00 0.00 48 1009.9
20260503212250 16 277 0.0 0.0 0.00 0.00 0.00 50 1010.3
20260503211747 17 17 0.0 0.0 0.00 0.00 0.00 52 1010.1
20260503211243 16 308 3.2 9.7 0.00 0.00 0.00 50 1010.3
20260503210738 16 354 0.0 0.0 0.00 0.00 0.00 52 1010.6
20260503210236 15 258 0.0 1.6 0.00 0.00 0.00 52 1010.4
20260503205731 15 256 3.2 4.8 0.00 0.00 0.00 51 1010.6
20260503205228 14 246 4.8 11.3 0.00 0.00 0.00 55 1010.9
20260503204724 13 272 4.8 8.0 0.00 0.00 0.00 60 1010.9
20260503204222 12 277 6.4 9.7 0.00 0.00 0.00 61 1011.3
20260503203719 13 290 1.6 4.8 0.00 0.00 0.00 62 1011.3
20260503203217 12 271 12.9 17.7 0.00 0.00 0.00 61 1011.5
20260503202714 13 237 1.6 3.2 0.00 0.00 0.00 61 1011.4
20260503202212 12 241 11.3 22.5 0.00 0.00 0.00 63 1011.5
20260503201709 15 265 9.7 22.5 0.00 0.00 0.00 55 1011.6
20260503201206 15 327 8.0 11.3 0.00 0.00 0.00 53 1011.3
20260503200703 15 359 8.0 11.3 0.00 0.00 0.00 53 1010.9
20260503200159 17 12 4.8 8.0 0.00 0.00 0.00 50 1011.4
20260503195656 16 343 0.0 1.6 0.00 0.00 0.00 53 1011.4
20260503195153 16 359 0.0 0.0 0.00 0.00 0.00 50 1011.4
20260503194650 16 127 0.0 0.0 0.00 0.00 0.00 46 1011.5
20260503194145 15 269 0.0 0.0 0.00 0.00 0.00 52 1011.5
20260503193642 15 254 0.0 0.0 0.00 0.00 0.00 51 1011.6
20260503193138 15 337 0.0 1.6 0.00 0.00 0.00 52 1011.6
20260503192633 15 312 4.8 8.0 0.00 0.00 0.00 51 1011.8
20260503192129 16 3 8.0 12.9 0.00 0.00 0.00 51 1011.6
20260503191626 16 28 1.6 3.2 0.00 0.00 0.00 48 1011.6
20260503191124 16 22 8.0 14.5 0.00 0.00 0.00 50 1011.5
20260503190620 16 33 11.3 14.5 0.00 0.00 0.00 49 1011.7
20260503190117 15 0 4.8 9.7 0.00 0.00 0.00 51 1011.7
20260503185614 15 15 6.4 8.0 0.00 0.00 0.00 48 1011.7
20260503185114 15 40 0.0 0.0 0.00 0.00 0.00 50 1011.8
20260503184610 15 27 4.8 9.7 0.00 0.00 0.00 50 1012.0
20260503184106 15 79 0.0 0.0 0.00 0.00 0.00 52 1011.8
20260503183603 16 125 0.0 0.0 0.00 0.00 0.00 52 1012.0
20260503183100 16 109 0.0 0.0 0.00 0.00 0.00 47 1012.0
20260503182559 16 66 0.0 0.0 0.00 0.00 0.00 54 1012.0
20260503182056 15 107 4.8 9.7 0.00 0.00 0.00 55 1012.5
20260503181553 15 148 0.0 3.2 0.00 0.00 0.00 55 1012.1
20260503181049 16 131 1.6 11.3 0.00 0.00 0.00 58 1012.2
20260503180547 15 115 0.0 1.6 0.00 0.00 0.00 55 1012.5
20260503180044 15 150 4.8 8.0 0.00 0.00 0.00 53 1012.5
20260503175541 15 133 0.0 0.0 0.00 0.00 0.00 54 1012.8
20260503175038 14 110 4.8 8.0 0.00 0.00 0.00 57 1012.9
20260503174536 16 131 0.0 1.6 0.00 0.00 0.00 56 1012.8
20260503174032 16 107 0.0 0.0 0.00 0.00 0.00 55 1012.7
20260503173527 15 104 0.0 0.0 0.00 0.00 0.00 55 1013.0
20260503173023 14 128 0.0 0.0 0.00 0.00 0.00 56 1012.9
20260503172521 15 129 0.0 0.0 0.00 0.00 0.00 59 1013.0
20260503172018 14 130 0.0 0.0 0.00 0.00 0.00 59 1012.7
20260503171514 13 111 0.0 0.0 0.00 0.00 0.00 61 1013.0
20260503171012 13 112 0.0 0.0 0.00 0.00 0.00 62 1013.0
20260503170508 14 121 0.0 0.0 0.00 0.00 0.00 62 1012.8
20260503150900 13 107 0.0 0.0 0.00 0.00 0.00 59 1013.4
20260503150356 12 116 0.0 0.0 0.00 0.00 0.00 60 1013.4
20260503131250 9 202 0.0 0.0 0.00 0.00 0.00 67 1014.0
20260503130748 8 172 0.0 0.0 0.00 0.00 0.00 67 1013.8
20260503130245 8 171 0.0 0.0 0.00 0.00 0.00 68 1014.2
20260503120211 6 216 0.0 0.0 0.00 0.00 0.00 73 1013.8
20260503110638 6 197 0.0 0.0 0.00 0.00 0.00 72 1014.5
20260503110136 6 221 0.0 0.0 0.00 0.00 0.00 73 1014.5
20260503081451 7 248 0.0 0.0 0.00 0.00 0.00 69 1015.0
20260503080949 6 147 0.0 0.0 0.00 0.00 0.00 71 1014.7